Fairfield, TX

11:56 PM CDT on September 03, 2015 (GMT -0500)
Sam's Restaurant | | Change Station
CLOSE
Current Station
Personal Weather Station
Location: Fairfield, TX
Elevation: 474 ft
Nearby Weather Stations

Elev 474 ft 31.73 °N, 96.15 °W | Updated 15 seconds ago

Partly Cloudy
Partly Cloudy
79.8 °F
Feels Like 83 °F
N
0.0
Wind Variable Wind from SE
Gusts 1.0 mph

Today
High -- | Low -- °F
--% Chance of Precip.
Yesterday
High -- | Low -- °F
Precip. -- in
7:01 AM 7:46 PM
Waning Gibbous, 63% visible
Pressure 29.90 in
Visibility 10.0 miles
Clouds Clear
Heat Index 83 °F
Dew Point 72 °F
Humidity 77%
Rainfall 0.00 in
Snow Depth Not available.
UV 0 out of 12
Pollen 8.80 out of 12
Air Quality Not available.
Flu Activity Not available.
METAR KLXY 040435Z AUTO 13012KT 10SM CLR 26/21 A2990 RMK AO2 T02620205
Pressure 29.90 in
Visibility 10.0 miles
Clouds Clear
Heat Index 83 °F
Dew Point 72 °F
Humidity 77%
Rainfall 0.00 in
Snow Depth Not available.
UV 0 out of 12
Pollen 8.80 out of 12
Air Quality Not available.
Flu Activity Not available.
METAR KLXY 040435Z AUTO 13012KT 10SM CLR 26/21 A2990 RMK AO2 T02620205

10-Day Weather Forecast

×

Almanac

Astronomy

Sep. 03, 2015 Rise Set
Actual Time
Civil Twilight
Nautical Twilight
Astronomical Twilight
Moon
Length of Visible Light
Length of Day
Tomorrow will be .
, % of the Moon is Illuminated

Today's Extremes

State Highs State Lows

Community

WunderPhotos

Upload Photos

1,852,129 photos uploaded!

WunderBlogs® & News

Nearby

Air Quality

  Air Quality AQ Index Pollutant
Not available.

Snow Depth

Station Depth Elevation

Earthquake Activity

City Distance Mag. Time & Date
Minimum magnitude displayed is 2.5.

Coastal Water Temperatures

Place Temperature

Stations

Nearby Weather Stations

Station Location Temp. Windchill Dew Point Humidity Wind Precip. Elev Updated Type